Time,TemperatureF,DewpointF,PressureIn,WindDirection,WindDirectionDegrees,WindSpeedMPH,WindSpeedGustMPH,Humidity,HourlyPrecipIn,Conditions,Clouds,dailyrainin,SoftwareType,DateUTC
2013-04-02 00:00:00,72.3,62.0,29.66,West,270,11.9,11.9,70,0.00,,---,0.00,VWS V13.01,2013-04-02 04:00:00,
2013-04-02 00:05:00,72.1,61.8,29.66,West,270,15.2,17.9,70,0.00,,---,0.00,VWS V13.01,2013-04-02 04:05:00,
2013-04-02 00:10:00,72.1,61.8,29.66,WNW,292,21.9,21.9,70,0.00,,---,0.00,VWS V13.01,2013-04-02 04:10:00,
2013-04-02 00:20:00,72.0,61.7,29.66,West,270,19.2,19.2,70,0.00,,---,0.00,VWS V13.01,2013-04-02 04:20:00,
2013-04-02 00:25:00,72.0,61.7,29.66,NW,315,13.4,19.2,70,0.00,,---,0.00,VWS V13.01,2013-04-02 04:25:00,
2013-04-02 00:30:00,71.8,61.5,29.66,WSW,248,15.0,15.0,70,0.00,,---,0.00,VWS V13.01,2013-04-02 04:30:00,
2013-04-02 00:40:00,71.8,61.9,29.67,West,270,21.5,21.5,71,0.00,,---,0.00,VWS V13.01,2013-04-02 04:40:00,
2013-04-02 00:50:00,71.4,61.5,29.66,WNW,292,20.6,20.6,71,0.00,,---,0.00,VWS V13.01,2013-04-02 04:50:00,
2013-04-02 01:00:00,71.4,61.5,29.66,WNW,292,4.9,9.0,71,0.00,,---,0.00,VWS V13.01,2013-04-02 05:00:00,
2013-04-02 01:10:00,71.4,61.5,29.65,West,270,0.0,5.1,71,0.00,,---,0.00,VWS V13.01,2013-04-02 05:10:00,
2013-04-02 01:15:00,71.4,61.9,29.65,WNW,292,0.4,3.4,72,0.00,,---,0.00,VWS V13.01,2013-04-02 05:15:00,
2013-04-02 01:25:00,71.2,61.8,29.66,WNW,292,0.7,19.5,72,0.00,,---,0.00,VWS V13.01,2013-04-02 05:25:00,
2013-04-02 01:35:00,71.2,61.8,29.65,West,270,15.7,15.7,72,0.00,,---,0.00,VWS V13.01,2013-04-02 05:35:00,
2013-04-02 01:40:00,71.2,61.8,29.65,NW,315,23.0,23.0,72,0.00,,---,0.00,VWS V13.01,2013-04-02 05:40:00,
2013-04-02 01:50:00,71.2,61.8,29.65,West,270,18.8,18.8,72,0.00,,---,0.00,VWS V13.01,2013-04-02 05:50:00,
2013-04-02 02:00:00,70.9,61.8,29.65,WNW,292,13.9,16.3,73,0.00,,---,0.00,VWS V13.01,2013-04-02 06:00:00,
2013-04-02 02:10:00,70.9,61.8,29.65,WNW,292,13.9,16.3,73,0.00,,---,0.00,VWS V13.01,2013-04-02 06:10:00,
2013-04-02 02:15:00,70.7,61.6,29.65,West,270,13.2,15.4,73,0.00,,---,0.00,VWS V13.01,2013-04-02 06:15:00,
2013-04-02 02:25:00,70.3,61.3,29.65,West,270,16.8,16.8,73,0.00,,---,0.00,VWS V13.01,2013-04-02 06:25:00,
2013-04-02 02:30:00,70.3,61.3,29.65,West,270,18.6,18.6,73,0.00,,---,0.00,VWS V13.01,2013-04-02 06:30:00,
2013-04-02 02:40:00,70.0,61.3,29.64,West,270,9.2,9.2,74,0.00,,---,0.00,VWS V13.01,2013-04-02 06:40:00,
2013-04-02 02:50:00,69.6,61.0,29.64,West,270,0.4,19.5,74,0.00,,---,0.00,VWS V13.01,2013-04-02 06:50:00,
2013-04-02 03:00:00,69.6,61.3,29.64,West,270,0.0,16.6,75,0.00,,---,0.00,VWS V13.01,2013-04-02 07:00:00,
2013-04-02 03:10:00,69.6,61.7,29.63,WNW,292,1.1,14.3,76,0.00,,---,0.00,VWS V13.01,2013-04-02 07:10:00,
2013-04-02 03:15:00,69.6,61.7,29.63,NNW,338,0.9,1.1,76,0.00,,---,0.00,VWS V13.01,2013-04-02 07:15:00,
2013-04-02 03:25:00,69.4,61.5,29.63,West,270,15.0,16.3,76,0.00,,---,0.00,VWS V13.01,2013-04-02 07:25:00,
2013-04-02 03:30:00,69.4,61.5,29.63,West,270,20.1,20.1,76,0.00,,---,0.00,VWS V13.01,2013-04-02 07:30:00,
2013-04-02 03:35:00,69.4,61.5,29.63,WNW,292,16.3,20.1,76,0.00,,---,0.00,VWS V13.01,2013-04-02 07:35:00,
2013-04-02 03:45:00,69.4,61.5,29.63,WNW,292,15.0,15.0,76,0.00,,---,0.00,VWS V13.01,2013-04-02 07:45:00,
2013-04-02 03:55:00,69.3,61.8,29.63,WNW,292,16.6,17.5,77,0.00,,---,0.00,VWS V13.01,2013-04-02 07:55:00,
2013-04-02 04:00:00,69.1,61.6,29.63,NNW,338,1.6,16.6,77,0.00,,---,0.00,VWS V13.01,2013-04-02 08:00:00,
2013-04-02 04:10:00,69.3,61.8,29.63,WNW,292,18.3,18.3,77,0.00,,---,0.00,VWS V13.01,2013-04-02 08:10:00,
2013-04-02 04:15:00,69.1,61.6,29.63,WNW,292,18.3,18.3,77,0.00,,---,0.00,VWS V13.01,2013-04-02 08:15:00,
2013-04-02 04:25:00,69.1,61.6,29.63,NNW,338,0.0,16.8,77,0.00,,---,0.00,VWS V13.01,2013-04-02 08:25:00,
2013-04-02 04:30:00,69.1,61.6,29.62,NW,315,18.6,18.6,77,0.00,,---,0.00,VWS V13.01,2013-04-02 08:30:00,
2013-04-02 04:35:00,69.1,61.9,29.62,NNW,338,2.0,18.6,78,0.00,,---,0.00,VWS V13.01,2013-04-02 08:35:00,
2013-04-02 04:45:00,68.9,61.8,29.62,West,270,19.5,19.5,78,0.00,,---,0.00,VWS V13.01,2013-04-02 08:45:00,
2013-04-02 04:50:00,68.9,62.1,29.62,WNW,292,11.9,19.5,79,0.00,,---,0.00,VWS V13.01,2013-04-02 08:50:00,
2013-04-02 05:00:00,68.9,62.1,29.63,NNW,338,0.0,18.8,79,0.00,,---,0.00,VWS V13.01,2013-04-02 09:00:00,
2013-04-02 05:10:00,68.9,62.1,29.63,NNW,338,0.0,18.8,79,0.00,,---,0.00,VWS V13.01,2013-04-02 09:10:00,
2013-04-02 05:15:00,68.9,62.1,29.63,NNW,338,0.0,18.8,79,0.00,,---,0.00,VWS V13.01,2013-04-02 09:15:00,
2013-04-02 05:20:00,68.7,62.0,29.63,West,270,11.9,11.9,79,0.00,,---,0.00,VWS V13.01,2013-04-02 09:20:00,
2013-04-02 05:25:00,68.7,62.0,29.63,WNW,292,6.3,12.1,79,0.00,,---,0.00,VWS V13.01,2013-04-02 09:25:00,
2013-04-02 05:35:00,68.7,62.0,29.63,NW,315,0.2,7.8,79,0.00,,---,0.00,VWS V13.01,2013-04-02 09:35:00,
2013-04-02 05:45:00,68.5,61.8,29.64,NW,315,11.0,18.6,79,0.00,,---,0.00,VWS V13.01,2013-04-02 09:45:00,
2013-04-02 05:50:00,68.5,61.8,29.64,NW,315,18.3,18.3,79,0.00,,---,0.00,VWS V13.01,2013-04-02 09:50:00,
2013-04-02 06:00:00,68.4,62.0,29.64,NW,315,0.0,11.9,80,0.00,,---,0.00,VWS V13.01,2013-04-02 10:00:00,
2013-04-02 06:10:00,68.4,62.0,29.64,NNW,338,2.2,2.2,80,0.00,,---,0.00,VWS V13.01,2013-04-02 10:10:00,
2013-04-02 06:20:00,68.4,62.3,29.65,WNW,292,3.6,3.6,81,0.00,,---,0.00,VWS V13.01,2013-04-02 10:20:00,
2013-04-02 06:30:00,68.4,62.3,29.65,NNW,338,13.2,13.2,81,0.00,,---,0.00,VWS V13.01,2013-04-02 10:30:00,
2013-04-02 06:35:00,68.4,62.0,29.64,NW,315,16.3,16.3,80,0.00,,---,0.00,VWS V13.01,2013-04-02 10:35:00,
2013-04-02 06:45:00,68.4,62.0,29.65,NW,315,16.8,16.8,80,0.00,,---,0.00,VWS V13.01,2013-04-02 10:45:00,
2013-04-02 06:55:00,68.2,61.8,29.65,NW,315,8.5,8.5,80,0.00,,---,0.00,VWS V13.01,2013-04-02 10:55:00,
2013-04-02 07:00:00,68.2,61.8,29.66,NW,315,3.1,12.3,80,0.00,,---,0.00,VWS V13.01,2013-04-02 11:00:00,
2013-04-02 07:10:00,68.2,61.8,29.66,NW,315,4.7,16.8,80,0.00,,---,0.00,VWS V13.01,2013-04-02 11:10:00,
2013-04-02 07:20:00,67.8,61.4,29.66,NW,315,3.1,16.3,80,0.00,,---,0.00,VWS V13.01,2013-04-02 11:20:00,
2013-04-02 07:30:00,67.8,61.4,29.67,NNW,338,2.0,14.3,80,0.00,,---,0.00,VWS V13.01,2013-04-02 11:30:00,
2013-04-02 07:35:00,67.8,61.4,29.67,WNW,292,0.7,2.0,80,0.00,,---,0.00,VWS V13.01,2013-04-02 11:35:00,
2013-04-02 07:45:00,67.8,61.8,29.68,WNW,292,1.1,3.1,81,0.00,,---,0.00,VWS V13.01,2013-04-02 11:45:00,
2013-04-02 07:50:00,67.8,61.8,29.68,NW,315,13.0,13.0,81,0.00,,---,0.00,VWS V13.01,2013-04-02 11:50:00,
2013-04-02 08:00:00,68.2,61.8,29.68,NW,315,15.2,15.2,80,0.00,,---,0.00,VWS V13.01,2013-04-02 12:00:00,
2013-04-02 08:10:00,68.4,62.0,29.69,NW,315,0.0,15.2,80,0.00,,---,0.00,VWS V13.01,2013-04-02 12:10:00,
2013-04-02 08:15:00,68.5,62.1,29.69,NW,315,0.7,0.9,80,0.00,,---,0.00,VWS V13.01,2013-04-02 12:15:00,
2013-04-02 08:25:00,69.1,62.3,29.69,NW,315,18.6,18.6,79,0.00,,---,0.00,VWS V13.01,2013-04-02 12:25:00,
2013-04-02 08:30:00,69.4,62.7,29.69,WNW,292,10.3,18.6,79,0.00,,---,0.00,VWS V13.01,2013-04-02 12:30:00,
2013-04-02 08:35:00,69.6,62.8,29.69,NW,315,0.0,10.3,79,0.00,,---,0.00,VWS V13.01,2013-04-02 12:35:00,
2013-04-02 08:45:00,70.0,62.8,29.70,NNW,338,0.0,2.5,78,0.00,,---,0.00,VWS V13.01,2013-04-02 12:45:00,
2013-04-02 08:55:00,70.7,63.5,29.71,NNE,22,2.7,2.7,78,0.00,,---,0.00,VWS V13.01,2013-04-02 12:55:00,
2013-04-02 09:05:00,71.2,63.3,29.70,WNW,292,2.7,4.3,76,0.00,,---,0.00,VWS V13.01,2013-04-02 13:05:00,
2013-04-02 09:15:00,72.0,64.0,29.71,NW,315,0.7,0.7,76,0.00,,---,0.00,VWS V13.01,2013-04-02 13:15:00,
2013-04-02 09:20:00,72.0,63.6,29.71,NNW,338,8.1,8.1,75,0.00,,---,0.00,VWS V13.01,2013-04-02 13:20:00,
2013-04-02 09:30:00,73.2,64.1,29.71,North,0,0.0,0.2,73,0.00,,---,0.00,VWS V13.01,2013-04-02 13:30:00,
2013-04-02 09:40:00,73.9,64.3,29.71,WNW,292,0.0,2.5,72,0.00,,---,0.00,VWS V13.01,2013-04-02 13:40:00,
2013-04-02 09:45:00,74.1,64.5,29.72,North,0,10.1,10.1,72,0.00,,---,0.00,VWS V13.01,2013-04-02 13:45:00,
2013-04-02 09:55:00,75.0,64.6,29.71,North,0,2.0,2.0,70,0.00,,---,0.00,VWS V13.01,2013-04-02 13:55:00,
2013-04-02 10:00:00,75.7,64.9,29.71,NNW,338,7.2,7.2,69,0.00,,---,0.00,VWS V13.01,2013-04-02 14:00:00,
2013-04-02 10:05:00,76.1,64.8,29.71,NNW,338,4.5,7.2,68,0.00,,---,0.00,VWS V13.01,2013-04-02 14:05:00,
2013-04-02 10:15:00,76.5,64.7,29.71,NNE,22,4.0,4.9,67,0.00,,---,0.00,VWS V13.01,2013-04-02 14:15:00,
2013-04-02 10:25:00,77.2,64.9,29.71,NNW,338,0.0,10.1,66,0.00,,---,0.00,VWS V13.01,2013-04-02 14:25:00,
2013-04-02 10:35:00,77.9,64.8,29.71,NNW,338,6.7,6.7,64,0.00,,---,0.00,VWS V13.01,2013-04-02 14:35:00,
2013-04-02 10:45:00,78.4,65.3,29.71,NNW,338,0.0,2.7,64,0.00,,---,0.00,VWS V13.01,2013-04-02 14:45:00,
2013-04-02 10:55:00,79.0,64.9,29.71,NW,315,0.4,6.5,62,0.00,,---,0.00,VWS V13.01,2013-04-02 14:55:00,
2013-04-02 11:05:00,79.7,65.1,29.71,NW,315,0.4,0.4,61,0.00,,---,0.00,VWS V13.01,2013-04-02 15:05:00,
2013-04-02 11:15:00,80.6,65.0,29.71,NNE,22,1.3,7.6,59,0.00,,---,0.00,VWS V13.01,2013-04-02 15:15:00,
2013-04-02 11:20:00,81.0,65.3,29.71,NNE,22,1.3,1.3,59,0.00,,---,0.00,VWS V13.01,2013-04-02 15:20:00,
2013-04-02 11:25:00,81.1,65.0,29.71,ENE,68,1.8,1.8,58,0.00,,---,0.00,VWS V13.01,2013-04-02 15:25:00,
2013-04-02 11:35:00,82.0,65.3,29.71,ENE,68,1.6,4.3,57,0.00,,---,0.00,VWS V13.01,2013-04-02 15:35:00,
2013-04-02 11:50:00,81.7,65.0,29.71,ESE,112,7.8,7.8,57,0.00,,---,0.00,VWS V13.01,2013-04-02 15:50:00,
2013-04-02 11:55:00,81.7,65.0,29.71,ESE,112,7.8,7.8,57,0.00,,---,0.00,VWS V13.01,2013-04-02 15:55:00,
2013-04-02 12:00:00,81.3,65.1,29.71,ESE,112,12.5,12.5,58,0.00,,---,0.00,VWS V13.01,2013-04-02 16:00:00,
2013-04-02 12:10:00,81.1,65.5,29.71,East,90,6.0,7.4,59,0.00,,---,0.00,VWS V13.01,2013-04-02 16:10:00,
2013-04-02 12:20:00,81.1,65.5,29.71,NE,45,4.7,6.0,59,0.00,,---,0.00,VWS V13.01,2013-04-02 16:20:00,
2013-04-02 12:25:00,81.5,65.8,29.71,East,90,5.6,5.8,59,0.00,,---,0.00,VWS V13.01,2013-04-02 16:25:00,
2013-04-02 12:40:00,81.7,66.0,29.71,ENE,68,1.3,5.8,59,0.00,,---,0.00,VWS V13.01,2013-04-02 16:40:00,
2013-04-02 12:50:00,82.2,66.0,29.71,SE,135,4.3,7.2,58,0.00,,---,0.00,VWS V13.01,2013-04-02 16:50:00,
2013-04-02 12:55:00,82.2,66.0,29.71,SE,135,4.3,4.3,58,0.00,,---,0.00,VWS V13.01,2013-04-02 16:55:00,
2013-04-02 13:05:00,82.6,66.3,29.71,ESE,112,7.8,7.8,58,0.00,,---,0.00,VWS V13.01,2013-04-02 17:05:00,
2013-04-02 13:10:00,82.2,65.5,29.70,NE,45,6.9,7.8,57,0.00,,---,0.00,VWS V13.01,2013-04-02 17:10:00,
2013-04-02 13:20:00,82.4,66.2,29.70,ENE,68,0.7,0.7,58,0.00,,---,0.00,VWS V13.01,2013-04-02 17:20:00,
2013-04-02 13:30:00,82.2,65.5,29.69,ENE,68,5.1,6.9,57,0.00,,---,0.00,VWS V13.01,2013-04-02 17:30:00,
2013-04-02 13:40:00,82.2,65.5,29.68,East,90,6.5,6.5,57,0.00,,---,0.00,VWS V13.01,2013-04-02 17:40:00,
2013-04-02 13:50:00,82.8,66.0,29.68,East,90,4.0,11.0,57,0.00,,---,0.00,VWS V13.01,2013-04-02 17:50:00,
2013-04-02 14:05:00,82.8,65.5,29.68,ENE,68,9.8,9.8,56,0.00,,---,0.00,VWS V13.01,2013-04-02 18:05:00,
2013-04-02 14:10:00,82.9,65.1,29.68,NE,45,6.0,9.8,55,0.00,,---,0.00,VWS V13.01,2013-04-02 18:10:00,
2013-04-02 14:20:00,82.6,64.8,29.68,East,90,7.4,8.1,55,0.00,,---,0.00,VWS V13.01,2013-04-02 18:20:00,
2013-04-02 14:30:00,82.6,65.3,29.68,SE,135,6.0,6.0,56,0.00,,---,0.00,VWS V13.01,2013-04-02 18:30:00,
2013-04-02 14:40:00,83.1,65.8,29.68,East,90,5.8,5.8,56,0.00,,---,0.00,VWS V13.01,2013-04-02 18:40:00,
2013-04-02 14:45:00,83.1,65.3,29.68,ENE,68,7.8,8.3,55,0.00,,---,0.00,VWS V13.01,2013-04-02 18:45:00,
2013-04-02 14:55:00,82.6,65.3,29.67,ENE,68,0.7,5.6,56,0.00,,---,0.00,VWS V13.01,2013-04-02 18:55:00,
2013-04-02 15:00:00,82.6,64.8,29.67,ENE,68,10.5,10.5,55,0.00,,---,0.00,VWS V13.01,2013-04-02 19:00:00,
2013-04-02 15:10:00,82.6,65.3,29.66,ENE,68,7.4,7.4,56,0.00,,---,0.00,VWS V13.01,2013-04-02 19:10:00,
2013-04-02 15:15:00,82.4,64.6,29.67,ENE,68,7.2,7.4,55,0.00,,---,0.00,VWS V13.01,2013-04-02 19:15:00,
2013-04-02 15:20:00,82.2,64.5,29.66,ENE,68,6.7,7.2,55,0.00,,---,0.00,VWS V13.01,2013-04-02 19:20:00,
2013-04-02 15:30:00,82.2,63.9,29.66,WSW,248,11.6,11.6,54,0.00,,---,0.00,VWS V13.01,2013-04-02 19:30:00,
2013-04-02 15:40:00,82.0,64.3,29.65,WSW,248,6.5,6.5,55,0.00,,---,0.00,VWS V13.01,2013-04-02 19:40:00,
2013-04-02 15:45:00,82.0,64.3,29.65,WSW,248,8.3,10.7,55,0.00,,---,0.00,VWS V13.01,2013-04-02 19:45:00,
2013-04-02 15:55:00,82.0,64.3,29.65,WSW,248,7.2,7.2,55,0.00,,---,0.00,VWS V13.01,2013-04-02 19:55:00,
2013-04-02 16:05:00,81.7,64.0,29.65,East,90,1.6,7.2,55,0.00,,---,0.00,VWS V13.01,2013-04-02 20:05:00,
2013-04-02 16:15:00,82.2,64.5,29.65,WSW,248,8.7,8.7,55,0.00,,---,0.00,VWS V13.01,2013-04-02 20:15:00,
2013-04-02 16:20:00,81.9,64.6,29.65,WSW,248,7.2,8.7,56,0.00,,---,0.00,VWS V13.01,2013-04-02 20:20:00,
2013-04-02 16:30:00,81.5,64.8,29.65,WSW,248,9.2,9.2,57,0.00,,---,0.00,VWS V13.01,2013-04-02 20:30:00,
2013-04-02 16:40:00,81.3,64.7,29.65,WSW,248,7.6,8.1,57,0.00,,---,0.00,VWS V13.01,2013-04-02 20:40:00,
2013-04-02 16:45:00,81.3,64.7,29.65,WSW,248,7.6,7.6,57,0.00,,---,0.00,VWS V13.01,2013-04-02 20:45:00,
2013-04-02 16:55:00,81.3,64.7,29.65,WSW,248,10.3,10.3,57,0.00,,---,0.00,VWS V13.01,2013-04-02 20:55:00,
2013-04-02 17:00:00,81.1,65.0,29.65,WSW,248,7.4,10.3,58,0.00,,---,0.00,VWS V13.01,2013-04-02 21:00:00,
2013-04-02 17:10:00,81.3,65.1,29.65,WSW,248,2.7,7.4,58,0.00,,---,0.00,VWS V13.01,2013-04-02 21:10:00,
2013-04-02 17:20:00,81.1,64.5,29.65,WSW,248,3.1,6.9,57,0.00,,---,0.00,VWS V13.01,2013-04-02 21:20:00,
2013-04-02 17:30:00,81.0,64.8,29.65,WSW,248,8.1,8.1,58,0.00,,---,0.00,VWS V13.01,2013-04-02 21:30:00,
2013-04-02 17:35:00,80.8,64.6,29.65,WSW,248,5.6,13.0,58,0.00,,---,0.00,VWS V13.01,2013-04-02 21:35:00,
2013-04-02 17:45:00,80.6,64.5,29.65,WSW,248,6.5,6.5,58,0.00,,---,0.00,VWS V13.01,2013-04-02 21:45:00,
2013-04-02 17:50:00,80.4,64.8,29.65,WSW,248,6.0,6.5,59,0.00,,---,0.00,VWS V13.01,2013-04-02 21:50:00,
2013-04-02 18:00:00,80.1,64.5,29.66,WSW,248,5.6,9.8,59,0.00,,---,0.00,VWS V13.01,2013-04-02 22:00:00,
2013-04-02 18:05:00,79.9,64.8,29.66,WSW,248,6.7,7.6,60,0.00,,---,0.00,VWS V13.01,2013-04-02 22:05:00,
2013-04-02 18:15:00,79.9,64.8,29.65,WSW,248,6.0,6.7,60,0.00,,---,0.00,VWS V13.01,2013-04-02 22:15:00,
2013-04-02 18:20:00,79.9,64.8,29.65,WSW,248,6.0,6.0,60,0.00,,---,0.00,VWS V13.01,2013-04-02 22:20:00,
2013-04-02 18:30:00,79.5,64.9,29.65,WSW,248,2.9,5.8,61,0.00,,---,0.00,VWS V13.01,2013-04-02 22:30:00,
2013-04-02 18:35:00,79.7,65.1,29.66,WSW,248,1.3,7.4,61,0.00,,---,0.00,VWS V13.01,2013-04-02 22:35:00,
2013-04-02 18:45:00,79.3,65.2,29.66,WSW,248,2.7,2.7,62,0.00,,---,0.00,VWS V13.01,2013-04-02 22:45:00,
2013-04-02 18:55:00,79.0,64.9,29.66,ENE,68,0.4,7.6,62,0.00,,---,0.00,VWS V13.01,2013-04-02 22:55:00,
2013-04-02 19:05:00,78.6,65.0,29.66,NE,45,6.7,8.5,63,0.00,,---,0.00,VWS V13.01,2013-04-02 23:05:00,
2013-04-02 19:10:00,78.1,64.9,29.65,ENE,68,6.0,6.7,64,0.00,,---,0.00,VWS V13.01,2013-04-02 23:10:00,
2013-04-02 19:20:00,77.7,64.6,29.66,NE,45,2.2,3.8,64,0.00,,---,0.00,VWS V13.01,2013-04-02 23:20:00,
2013-04-02 19:25:00,77.5,64.4,29.66,East,90,4.7,4.7,64,0.00,,---,0.00,VWS V13.01,2013-04-02 23:25:00,
2013-04-02 19:35:00,77.4,64.2,29.66,ENE,68,0.0,4.7,64,0.00,,---,0.00,VWS V13.01,2013-04-02 23:35:00,
2013-04-02 19:45:00,76.8,64.2,29.66,East,90,8.1,8.1,65,0.00,,---,0.00,VWS V13.01,2013-04-02 23:45:00,
2013-04-02 19:55:00,76.6,64.0,29.66,East,90,3.8,6.0,65,0.00,,---,0.00,VWS V13.01,2013-04-02 23:55:00,
2013-04-02 20:10:00,76.1,63.9,29.67,ENE,68,6.0,6.9,66,0.00,,---,0.00,VWS V13.01,2013-04-03 00:10:00,
2013-04-02 20:20:00,76.1,64.4,29.67,East,90,0.0,4.0,67,0.00,,---,0.00,VWS V13.01,2013-04-03 00:20:00,
2013-04-02 20:30:00,75.9,64.2,29.68,NE,45,6.5,7.4,67,0.00,,---,0.00,VWS V13.01,2013-04-03 00:30:00,
2013-04-02 20:35:00,75.9,64.2,29.67,ENE,68,1.1,7.6,67,0.00,,---,0.00,VWS V13.01,2013-04-03 00:35:00,
2013-04-02 20:50:00,75.9,64.6,29.68,ENE,68,0.7,6.5,68,0.00,,---,0.00,VWS V13.01,2013-04-03 00:50:00,
2013-04-02 20:55:00,75.7,64.0,29.68,NE,45,6.7,6.7,67,0.00,,---,0.00,VWS V13.01,2013-04-03 00:55:00,
2013-04-02 21:05:00,75.7,64.0,29.68,NE,45,2.9,6.7,67,0.00,,---,0.00,VWS V13.01,2013-04-03 01:05:00,
2013-04-02 21:15:00,75.7,64.4,29.69,ENE,68,1.8,7.2,68,0.00,,---,0.00,VWS V13.01,2013-04-03 01:15:00,
2013-04-02 21:25:00,75.7,64.4,29.69,NE,45,0.0,2.5,68,0.00,,---,0.00,VWS V13.01,2013-04-03 01:25:00,
2013-04-02 21:30:00,75.7,64.9,29.69,ENE,68,1.8,2.9,69,0.00,,---,0.00,VWS V13.01,2013-04-03 01:30:00,
2013-04-02 21:40:00,75.7,64.9,29.69,ENE,68,4.7,4.7,69,0.00,,---,0.00,VWS V13.01,2013-04-03 01:40:00,
2013-04-02 21:45:00,75.7,64.9,29.69,ENE,68,5.8,5.8,69,0.00,,---,0.00,VWS V13.01,2013-04-03 01:45:00,
2013-04-02 21:55:00,75.6,64.7,29.70,NE,45,3.4,5.1,69,0.00,,---,0.00,VWS V13.01,2013-04-03 01:55:00,
2013-04-02 22:00:00,75.6,64.7,29.70,NE,45,4.0,4.0,69,0.00,,---,0.00,VWS V13.01,2013-04-03 02:00:00,
2013-04-02 22:10:00,75.6,64.7,29.70,ESE,112,2.0,5.6,69,0.00,,---,0.00,VWS V13.01,2013-04-03 02:10:00,
2013-04-02 22:25:00,75.4,64.5,29.71,ESE,112,4.7,4.7,69,0.00,,---,0.00,VWS V13.01,2013-04-03 02:25:00,
2013-04-02 22:35:00,75.4,64.5,29.71,ESE,112,3.4,3.4,69,0.00,,---,0.00,VWS V13.01,2013-04-03 02:35:00,
2013-04-02 22:45:00,75.4,64.5,29.71,East,90,7.4,7.4,69,0.00,,---,0.00,VWS V13.01,2013-04-03 02:45:00,
2013-04-02 22:55:00,75.2,64.3,29.71,ENE,68,4.3,4.9,69,0.00,,---,0.00,VWS V13.01,2013-04-03 02:55:00,
2013-04-02 23:05:00,75.2,64.8,29.71,ENE,68,1.8,6.7,70,0.00,,---,0.00,VWS V13.01,2013-04-03 03:05:00,
2013-04-02 23:15:00,75.0,64.6,29.71,East,90,5.1,5.1,70,0.00,,---,0.00,VWS V13.01,2013-04-03 03:15:00,
2013-04-02 23:20:00,75.0,64.6,29.70,ENE,68,7.2,7.2,70,0.00,,---,0.00,VWS V13.01,2013-04-03 03:20:00,
2013-04-02 23:30:00,75.0,64.6,29.71,East,90,4.9,5.4,70,0.00,,---,0.00,VWS V13.01,2013-04-03 03:30:00,
2013-04-02 23:40:00,75.0,64.6,29.71,East,90,6.3,6.3,70,0.00,,---,0.00,VWS V13.01,2013-04-03 03:40:00,
2013-04-02 23:50:00,75.0,64.6,29.71,East,90,6.0,6.0,70,0.00,,---,0.00,VWS V13.01,2013-04-03 03:50:00,
2013-04-02 23:55:00,75.0,64.6,29.70,East,90,8.1,8.1,70,0.00,,---,0.00,VWS V13.01,2013-04-03 03:55:00,